Regional Weather Roundup
Issued by NWS

Home | Current Version | Previous Version | Text Only | Print | Product List | Glossary Off
Versions: 1 2 3 4 5 6 7 8 9 10 11 12 13 14 15 16 17 18 19 20 21 22 23 24 25 26 27 28 29 30 31 32 33 34 35 36 37 38 39 40 41 42 43 44 45 46 47 48 49 50

000
ASUS43 KTOP 252308
RWRKS

WEATHER ROUNDUP FOR KANSAS
NATIONAL WEATHER SERVICE GOODLAND KS
500 PM CST SAT FEB 25 2017

NOTE:  "FAIR" INDICATES FEW OR NO CLOUDS BELOW 12,000 FEET WITH NO
SIGNIFICANT WEATHER AND/OR OBSTRUCTIONS TO VISIBILITY.

KSZ001>006-013>018-027>032-041>047-260000-
NORTHWEST KANSAS

CITY           SKY/WX    TMP DP  RH WIND       PRES   REMARKS
GOODLAND       SUNNY     38   3  23 N10       29.88F WCI  31
HAYS           MOSUNNY   46  13  26 W16       29.94F
HILL CITY      CLOUDY    47  14  26 NW6       29.91F
RUSSELL        PTSUNNY   48  15  26 SW16G22   29.93F
$$

KSZ061>065-074>080-084>089-260000-
SOUTHWEST KANSAS

CITY           SKY/WX    TMP DP  RH WIND       PRES   REMARKS
DODGE CITY     PTSUNNY   47  14  26 SW18      29.93F
ELKHART          N/A     49  11  21 W8          N/A
GARDEN CITY    MOSUNNY   49   6  17 SW6       29.88F
GREAT BEND     MOSUNNY   47  14  26 SW18      29.97F
LIBERAL        SUNNY     50  16  25 SW16      29.90F
PRATT          SUNNY     43   8  24 SW13      30.00F
$$

KSZ066>073-081>083-090>101-260000-
SOUTHEAST KANSAS

CITY           SKY/WX    TMP DP  RH WIND       PRES   REMARKS
CHANUTE        SUNNY     45   9  23 S13       30.09F
COFFEYVILLE    SUNNY     46  12  25 S7        30.11F
HUTCHINSON     SUNNY     45  11  25 SW14      30.02F
MEDICINE LODGE   N/A     45   9  23 S14       30.01F
NEWTON         SUNNY     42  12  29 S17       30.04F
PARSONS        SUNNY     46   8  21 S8        30.11F
WICHITA INTL   MOSUNNY   43  16  33 S14G22    30.05F
WICHITA JABRA  SUNNY     42  16  34 S15       30.05F
WICHITA MCCONL SUNNY     43  15  32 SW16      30.05F
WINFIELD       SUNNY     44  15  31 SW9       30.08F
$$

KSZ007>012-019>026-033>040-048>060-102>105-260000-
NORTHEAST KANSAS

CITY           SKY/WX    TMP DP  RH WIND       PRES   REMARKS
CONCORDIA      CLOUDY    45  15  30 SW13G23   29.96F
EMPORIA        SUNNY     44   7  21 SW13      30.05F
LAWRENCE       SUNNY     44   9  23 SW9       30.07F
MANHATTAN      MOSUNNY   45  12  26 SW12      30.02F
MARYSVILLE     CLOUDY    41  16  36 SW13      30.00F
OLATHE IND     SUNNY     42   9  25 SW10      30.07F
OLATHE EXE     SUNNY     41   9  26 SW8       30.07F
SALINA         MOSUNNY   48  12  23 SW12      30.01F
TOPEKA BILLARD SUNNY     44   9  23 S9        30.05F
TOPEKA FORBES  SUNNY     44  11  26 SW10G21   30.05F
$$



USA.gov is the U.S. government's official web portal to all federal, state and local government web resources and services.